Theta_e
322 323 325 324 324 320 315 309 310 314 314 314 313 312 310 309 312 312 311 314 315 316 316 316 314 313 312 311 307 309 308 306 303 302 301 299 299 301 302 306 306 304 303 308 308 306 309 308 309 312 308 307 307 306
322 323 324 324 325 320 318 309 310 314 315 314 314 314 313 310 309 310 310 312 312 315 315 317 316 316 316 315 313 310 308 307 306 299 298 296 300 300 297 301 304 303 302 303 304 305 308 308 306 306 307 306 304 304
321 323 323 324 324 321 318 309 310 312 315 315 314 314 314 313 312 311 311 311 312 315 314 314 314 316 316 316 313 312 310 310 308 308 303 297 298 297 301 299 301 302 303 299 301 302 303 305 304 304 305 305 304 304
322 323 323 325 324 322 317 309 310 310 313 315 315 315 315 315 315 315 315 316 315 316 313 314 316 317 317 316 314 314 313 311 309 307 305 299 298 301 295 297 298 301 303 302 299 301 303 304 304 304 303 304 304 304
321 324 325 325 324 321 317 309 310 310 311 313 314 314 314 314 315 315 316 316 316 315 314 316 315 315 316 317 314 314 313 313 309 309 305 303 303 302 302 301 298 303 301 300 302 304 304 304 305 305 304 304 304 304
322 324 324 324 324 320 317 309 310 310 310 310 310 311 311 312 313 314 317 317 316 316 316 310 315 315 316 316 316 314 313 313 311 311 310 309 308 306 301 302 304 305 305 306 305 305 304 305 305 305 305 306 305 306
323 323 322 323 323 319 315 308 310 310 310 310 310 310 310 312 313 313 316 317 317 316 316 312 311 316 318 315 314 312 312 312 312 311 311 310 308 307 300 300 306 306 306 306 306 305 305 305 306 306 307 307 307 306
323 322 323 323 321 318 310 309 310 310 310 311 311 310 312 315 316 316 317 317 315 317 315 312 310 314 318 315 313 312 312 311 313 313 312 309 307 307 306 307 308 307 306 306 307 307 308 308 308 307 307 307 306 306
323 323 324 321 319 314 308 309 310 310 310 311 310 316 317 318 319 318 317 315 316 316 315 314 312 313 317 317 315 316 315 315 314 314 313 310 305 306 308 309 310 308 309 309 309 308 308 308 307 307 307 307 307 306
322 323 321 319 317 309 308 309 310 310 310 312 318 319 320 319 317 316 315 315 314 314 315 313 313 313 316 317 316 316 316 313 310 310 309 307 306 309 309 307 307 308 308 308 309 309 309 308 308 307 307 307 306 306
323 321 319 317 311 308 309 309 310 311 311 317 317 318 317 317 317 317 315 315 315 314 313 313 313 311 316 314 315 312 307 306 311 311 310 310 311 309 310 308 309 309 308 308 310 310 310 310 308 307 308 307 306 306
320 318 316 313 308 308 309 309 309 311 312 314 314 314 315 317 318 317 315 318 318 315 316 316 317 316 316 317 315 311 315 310 312 312 312 309 309 311 309 310 309 310 310 311 311 310 310 310 309 309 308 307 305 305
318 315 308 307 308 309 309 310 310 311 313 314 316 317 319 317 316 321 321 316 314 317 319 318 315 317 316 315 314 313 316 314 312 311 311 306 309 310 310 308 309 310 310 310 310 310 310 309 309 308 307 307 305 305
312 307 307 309 309 310 310 311 311 312 314 312 319 319 319 316 318 318 317 315 319 319 319 319 317 315 313 311 311 313 309 308 307 303 307 304 309 309 309 310 309 308 308 308 307 308 309 309 308 308 307 306 305 305
308 308 309 310 310 310 310 310 312 313 312 313 319 314 317 320 321 321 320 318 319 318 318 317 315 314 309 311 308 308 310 308 304 304 303 309 309 309 309 310 309 308 308 308 307 307 307 308 307 307 307 306 306 306
310 311 311 312 311 309 310 310 311 311 311 312 314 316 318 319 320 320 320 319 318 319 318 315 311 309 311 308 311 312 309 304 305 304 310 310 310 310 310 309 309 308 306 306 307 307 307 306 306 306 306 306 306 305
313 315 313 313 311 309 310 311 310 309 309 318 320 320 320 321 321 319 320 320 319 316 310 311 311 313 308 310 310 307 307 305 308 310 310 311 310 310 310 309 309 309 307 307 307 307 306 306 306 306 305 306 305 305
316 317 315 311 309 309 311 311 315 320 320 320 319 320 321 322 321 320 321 318 317 316 313 312 310 310 310 311 308 306 309 310 310 311 311 311 310 310 310 309 309 308 307 307 308 307 306 306 306 306 305 305 305 305
308 308 309 311 311 310 314 317 312 314 317 320 321 321 322 322 322 321 318 317 316 315 314 312 309 308 307 309 310 311 312 311 312 310 309 310 311 309 309 308 308 307 306 306 306 305 305 305 305 304 304 304 305 305
309 314 315 313 312 312 312 317 321 318 320 322 322 321 322 320 321 319 316 316 314 314 312 310 309 311 312 312 309 312 313 311 310 309 308 308 308 307 307 307 307 307 307 306 305 305 305 304 303 304 304 304 304 303
313 321 321 318 316 314 313 317 322 323 323 322 321 320 320 320 322 320 316 315 314 312 311 313 314 312 312 312 309 309 311 309 308 307 308 309 309 307 306 305 306 306 306 305 305 304 304 304 301 303 303 303 303 303
313 321 320 317 318 316 317 316 314 319 322 322 321 320 319 319 320 319 317 316 314 314 314 314 312 311 312 312 310 309 310 311 311 308 308 308 307 306 305 305 304 304 303 302 303 303 302 302 302 302 302 303 303 302
314 319 319 316 321 320 319 321 321 321 320 318 318 318 319 320 320 318 316 316 316 315 314 313 310 311 312 314 311 310 310 310 311 312 309 308 307 306 304 303 302 302 302 301 301 301 301 302 302 302 302 303 302 302
317 317 319 320 320 318 320 322 322 320 319 316 315 318 317 319 319 317 315 316 317 316 315 312 311 312 313 315 313 311 308 307 307 311 309 308 308 305 303 303 302 302 301 301 301 300 301 302 302 302 302 302 302 302
314 317 319 319 321 322 321 320 319 319 318 316 318 318 318 319 315 315 316 316 316 316 314 313 313 312 312 314 313 310 305 307 311 307 306 304 305 304 303 302 300 301 301 301 300 301 301 302 302 302 302 302 301 302
308 314 318 319 319 318 318 321 320 317 317 320 319 320 318 317 319 319 314 315 315 316 314 313 312 310 310 312 309 303 305 306 305 304 303 303 304 304 302 301 299 300 300 300 301 301 301 302 301 301 301 300 301 301
308 314 317 318 319 319 320 321 320 318 319 319 319 317 317 320 319 317 317 315 315 314 314 312 308 307 307 306 304 304 304 304 304 303 303 301 303 302 299 299 299 301 300 300 300 301 301 301 301 300 300 300 301 300
315 317 317 318 319 320 319 318 319 320 319 322 320 319 321 319 318 319 316 314 313 310 307 306 305 305 304 304 303 304 304 304 303 303 303 301 299 299 299 298 300 300 300 300 300 300 300 300 300 300 299 299 300 300
312 317 318 318 317 318 321 320 321 322 321 321 320 317 318 319 320 319 315 312 307 306 306 305 304 304 304 303 303 304 304 304 304 303 303 302 300 300 300 300 299 300 300 300 300 300 300 300 300 300 300 299 299 299
311 310 315 314 314 314 318 321 323 322 320 320 321 321 322 321 320 319 315 310 307 308 308 307 306 305 305 304 304 303 303 304 304 304 304 303 302 300 300 300 300 298 299 300 299 299 300 300 299 299 299 298 298 299
313 313 313 312 312 313 317 322 322 321 320 321 321 322 321 318 318 316 314 312 309 307 308 307 306 306 305 305 304 304 303 303 303 303 303 303 302 300 300 300 300 300 299 299 299 300 300 300 300 300 299 298 298 298
314 314 315 315 319 322 323 322 322 321 321 322 321 321 321 319 316 314 313 311 308 308 308 308 307 307 307 306 305 305 304 303 303 302 303 303 302 301 301 300 300 300 300 300 300 299 299 300 300 299 299 299 298 298
315 315 314 317 322 321 321 320 322 323 323 322 320 320 320 320 318 317 316 316 314 313 314 313 311 309 307 306 305 304 304 303 302 302 302 302 302 302 301 301 301 300 300 300 300 300 300 300 299 299 299 299 298 298
Wind_Speed
25 23 15 10 11 10 9 10 9 9 8 9 7 6 4 5 3 5 7 6 5 3 6 8 8 7 6 5 4 5 3 2 3 3 3 3 3 5 2 2 2 4 4 3 3 2 5 3 2 3 1 4 8 10
24 20 12 11 12 10 8 8 8 7 6 7 7 5 5 5 5 7 7 7 8 5 5 12 13 10 8 7 9 9 2 4 5 4 0 3 2 1 4 2 1 2 5 4 6 4 3 4 4 10 9 8 10 14
23 18 13 14 12 10 8 8 7 6 5 6 6 5 6 5 5 6 7 8 7 5 9 12 16 15 15 12 8 6 5 6 6 5 6 2 3 3 4 4 2 3 5 3 3 0 4 5 7 8 10 9 11 13
21 19 17 15 12 10 7 7 7 5 4 4 5 6 6 7 6 7 8 8 4 4 3 2 6 7 10 17 15 11 6 10 11 8 4 3 3 7 3 2 3 4 10 5 4 10 13 12 7 7 4 1 3 7
19 16 13 10 12 10 8 7 7 5 4 5 6 7 7 7 8 9 7 3 3 3 3 10 16 15 14 16 22 18 15 13 13 6 3 3 5 5 3 2 3 12 7 6 6 11 7 10 12 8 2 4 7 11
16 14 13 15 13 10 8 7 7 5 6 6 7 8 8 9 8 7 1 1 2 3 4 3 6 5 6 18 18 25 21 19 13 7 6 7 8 9 4 4 9 18 20 22 4 5 10 5 7 7 7 6 10 15
14 12 14 16 12 10 9 6 5 5 6 7 9 9 9 9 8 3 1 3 2 4 3 6 9 2 5 6 14 20 24 12 12 7 7 8 10 17 3 4 6 13 16 18 16 12 9 13 10 7 10 13 14 18
15 15 18 17 13 10 8 4 4 5 7 8 7 7 8 6 3 4 2 4 7 3 2 2 5 6 1 3 5 11 9 11 5 5 2 4 8 4 3 10 7 6 12 16 16 16 15 15 12 11 12 12 15 16
15 14 14 15 10 8 6 4 4 6 6 5 4 6 1 3 2 4 6 4 2 5 1 1 2 3 2 3 5 5 8 4 9 6 7 11 2 4 4 5 7 14 10 6 8 11 11 12 8 8 8 10 13 13
13 14 16 14 10 8 5 4 4 4 3 2 3 1 2 3 6 4 1 1 3 2 3 3 4 3 3 2 4 4 2 3 3 2 4 2 2 8 5 5 4 3 12 11 8 7 9 12 13 8 9 11 11 11
10 17 17 10 9 7 4 4 3 2 0 2 1 1 2 3 0 0 1 1 2 2 5 5 7 3 3 1 2 3 2 1 1 2 1 1 1 3 8 12 7 1 0 7 18 14 11 11 10 9 10 11 12 12
18 17 13 10 7 5 4 5 4 3 2 1 3 5 2 0 0 0 2 2 2 3 4 4 3 5 2 3 3 4 1 2 1 2 1 3 2 3 8 11 9 7 7 5 6 13 12 15 14 12 11 10 10 12
16 13 9 6 4 4 6 7 7 6 2 2 1 0 1 1 2 2 1 2 2 3 3 3 3 2 1 0 2 1 3 1 2 1 2 3 5 5 11 8 6 7 9 9 9 12 13 13 12 11 11 8 10 12
14 7 3 1 3 5 5 7 8 7 1 1 1 2 2 2 4 4 4 3 3 5 8 7 1 0 1 2 1 2 1 2 2 3 3 3 4 7 6 6 7 5 4 5 8 11 14 15 13 11 11 8 12 10
6 3 1 3 4 4 5 7 8 4 2 2 2 2 5 7 5 4 5 4 2 4 3 1 2 1 1 2 2 2 1 1 3 3 3 5 6 7 7 5 7 7 6 8 8 11 13 13 13 13 8 10 12 9
4 5 9 6 4 3 1 4 4 4 2 2 4 3 5 2 3 5 4 3 3 3 3 3 2 2 2 1 2 1 2 3 3 4 9 10 9 8 8 7 7 8 8 9 10 10 11 9 9 9 9 13 9 8
3 3 5 2 1 6 4 6 5 3 2 3 5 9 13 12 8 2 3 2 2 1 2 2 2 1 1 2 2 3 4 3 5 11 12 11 12 10 8 7 12 12 12 14 11 10 10 12 10 6 6 8 8 5
2 3 3 4 6 9 3 4 3 3 4 7 5 6 8 7 7 4 1 2 2 1 4 2 4 2 2 1 3 4 6 8 8 10 13 12 9 8 8 10 13 14 14 12 10 12 13 12 14 10 11 6 10 7
4 6 8 9 9 4 2 3 4 3 7 6 8 11 8 8 7 7 3 4 3 2 4 3 2 2 3 6 6 10 7 5 8 11 11 8 8 7 9 13 11 14 10 9 11 10 9 7 9 7 3 7 9 7
7 8 5 4 3 3 3 3 4 4 4 2 5 5 3 3 5 5 6 8 7 3 2 2 5 4 5 3 6 3 3 5 7 9 8 3 4 7 10 11 13 13 9 7 7 7 8 2 6 3 1 7 5 2
6 2 3 2 2 5 4 3 5 4 4 4 4 3 4 5 5 8 8 9 6 3 4 7 7 4 4 4 2 2 3 2 4 5 5 6 6 7 9 9 8 7 7 7 8 9 13 9 7 9 3 4 2 5
5 5 4 4 3 3 5 6 4 3 3 4 3 3 4 3 4 6 8 8 5 8 8 7 9 10 8 9 7 4 3 4 3 3 2 3 4 6 6 6 10 9 10 9 7 7 4 5 6 5 1 5 8 6
4 3 2 3 3 4 3 4 4 3 2 2 1 2 3 3 3 6 4 6 7 10 12 9 10 9 9 8 6 6 3 6 7 5 5 5 5 4 3 5 7 6 7 8 7 9 7 8 7 3 6 7 7 4
3 3 3 3 6 5 2 3 4 3 1 1 1 3 3 2 4 3 3 4 7 9 16 13 11 9 8 9 8 6 4 8 6 3 3 4 6 3 1 4 3 5 7 10 9 7 6 5 6 6 7 7 6 7
3 4 4 5 5 3 3 2 2 1 3 4 3 3 2 2 1 2 3 4 7 12 17 13 10 8 7 6 7 3 4 4 3 1 2 3 4 1 2 2 5 3 6 7 6 8 8 5 6 7 8 5 3 6
1 5 7 4 3 4 3 3 4 4 3 3 5 2 2 2 1 4 3 3 5 14 17 14 7 7 7 5 4 4 7 7 4 4 5 7 4 4 4 4 3 3 7 6 7 7 8 10 9 8 7 7 6 6
3 5 7 7 5 4 3 2 2 2 3 4 2 2 2 2 4 3 3 3 5 8 8 6 5 6 8 12 10 8 10 9 6 6 6 5 2 1 4 3 4 5 7 8 4 5 4 5 6 6 6 6 5 6
7 4 5 2 5 7 3 3 3 4 3 5 5 3 3 4 4 2 2 8 8 7 9 11 9 9 10 11 11 11 11 9 8 7 7 8 9 7 5 4 4 4 3 4 7 5 3 2 3 5 6 6 5 3
6 5 4 5 6 6 6 8 5 5 4 8 5 3 3 2 2 3 6 12 12 11 11 13 13 12 10 9 8 10 9 7 9 9 4 6 7 8 7 7 3 3 3 4 3 2 1 2 3 2 2 3 4 3
6 10 5 4 3 4 6 8 3 5 5 7 4 2 3 4 5 5 10 17 18 13 8 9 7 10 8 8 7 9 11 13 10 7 5 3 3 8 7 4 5 4 4 6 1 1 2 1 2 1 1 4 4 2
3 5 5 5 5 8 11 8 7 7 5 5 6 4 4 2 4 7 9 11 14 15 13 14 14 12 11 9 7 6 7 10 14 14 11 5 6 8 9 7 5 5 5 5 4 2 1 3 5 5 5 6 5 4
8 11 7 4 3 4 5 3 2 2 2 4 4 4 4 3 2 4 13 18 18 18 15 14 15 13 9 9 7 7 8 6 5 9 13 13 11 8 10 9 8 7 6 3 3 4 6 7 7 6 6 5 4 4
8 7 12 6 2 4 4 3 2 2 2 2 3 3 4 4 5 6 5 10 19 20 17 14 11 13 12 13 12 12 11 9 7 9 13 14 10 9 9 11 9 7 6 7 6 6 7 8 8 7 5 4 3 3
Wind_Direction
317 318 309 292 295 303 316 338 340 345 350 344 337 335 301 275 297 326 339 359 14 272 222 209 204 182 185 189 151 163 70 349 51 73 120 194 141 209 115 235 198 171 134 166 128 117 270 188 103 197 195 312 299 308
313 318 292 277 292 291 305 327 329 336 356 346 344 341 326 290 291 295 302 306 323 292 265 224 225 224 239 268 191 170 199 165 159 89 135 109 91 108 160 209 143 232 182 183 179 210 140 170 282 292 286 285 307 311
306 310 290 268 280 285 299 313 313 316 351 354 349 342 344 329 327 310 305 302 314 291 280 253 245 241 239 229 223 156 192 194 177 143 141 142 131 127 167 239 149 229 163 146 30 177 207 192 270 257 253 281 307 306
300 298 291 263 260 269 276 292 301 298 332 331 337 332 342 334 330 324 323 322 327 315 319 291 228 241 236 222 224 231 232 181 156 150 122 142 156 192 218 199 170 197 151 175 263 261 247 255 197 155 178 224 323 320
293 293 290 240 244 254 264 285 291 286 298 309 309 310 320 326 328 330 336 353 15 4 280 291 291 253 235 219 221 230 231 201 168 155 135 199 162 140 154 149 241 190 176 172 217 206 177 180 184 176 186 330 330 321
285 281 262 239 228 241 256 269 281 288 283 279 290 302 312 315 319 337 333 271 267 351 316 319 319 317 322 215 225 226 229 213 194 174 189 196 177 172 151 201 246 217 218 221 192 213 211 175 195 240 254 296 306 310
272 278 261 242 217 239 240 258 282 292 290 284 280 291 309 315 310 281 333 352 341 347 299 310 326 315 333 220 213 214 214 212 217 196 201 185 187 178 149 199 238 220 224 225 230 253 266 253 265 284 283 296 300 302
264 270 264 221 203 223 234 254 280 286 292 286 291 305 319 328 99 85 43 300 270 290 312 329 284 317 197 218 207 212 207 221 217 234 223 136 144 185 241 248 253 231 210 223 230 240 258 271 282 280 283 290 289 298
255 255 231 189 196 211 231 260 276 293 292 287 315 327 80 73 75 341 328 352 243 217 307 242 268 282 291 247 215 209 206 198 210 207 195 164 115 215 226 317 287 213 181 178 202 228 238 248 259 254 271 284 283 289
237 248 179 176 196 204 224 254 283 303 287 337 3 79 96 23 353 359 348 55 141 195 233 231 237 265 281 331 350 300 277 30 23 321 115 146 248 261 239 104 89 214 226 226 221 227 242 252 253 252 273 289 293 295
211 168 161 180 192 206 224 249 275 282 280 79 31 106 327 324 41 282 244 205 153 266 221 233 229 254 282 170 195 63 137 236 306 279 155 277 273 280 201 187 216 249 147 219 267 258 269 268 268 260 275 287 293 303
168 154 161 177 194 217 237 253 254 227 170 69 313 279 284 133 211 73 275 149 214 248 214 213 281 245 284 229 163 172 116 23 313 314 48 321 262 276 183 180 184 238 333 281 257 259 279 281 269 261 277 283 300 308
137 137 151 176 212 251 262 251 232 211 206 326 119 43 85 142 12 215 307 277 281 229 227 292 315 287 258 9 115 164 193 352 330 349 332 237 283 249 216 245 270 289 308 298 283 262 270 279 273 260 262 264 283 306
120 128 132 230 284 276 252 218 197 190 191 181 158 264 205 228 240 201 198 210 262 256 290 308 266 52 342 35 116 91 259 82 69 9 256 255 240 212 256 286 315 306 297 280 290 278 275 277 278 256 244 262 277 295
112 126 137 111 104 111 131 156 172 180 210 184 185 238 228 238 264 291 278 278 302 303 303 209 72 28 342 78 35 100 85 3 177 233 241 273 245 242 254 281 293 301 272 268 293 286 294 290 287 274 248 269 271 281
98 109 145 129 95 50 206 199 200 202 241 219 225 256 248 291 281 282 306 331 1 29 67 51 71 44 25 71 50 77 113 223 252 226 288 302 293 282 263 271 294 294 303 303 292 290 291 292 309 285 248 277 267 259
137 160 166 150 15 345 299 208 201 217 239 233 249 251 258 277 280 315 339 330 310 338 95 85 34 290 147 50 335 170 204 220 271 309 313 306 298 285 277 280 292 306 299 304 293 284 283 267 270 301 264 259 259 239
108 174 230 288 308 327 267 206 219 229 253 242 247 282 253 244 289 300 300 253 218 203 153 185 140 89 145 218 274 247 272 294 307 321 321 310 300 308 302 290 313 311 303 305 286 285 283 286 273 270 253 258 247 214
309 289 283 282 281 279 259 221 222 251 245 258 263 275 270 256 269 238 248 230 195 187 156 155 112 189 228 215 256 298 318 338 335 332 329 323 309 315 300 298 304 327 311 302 305 299 297 276 272 250 207 251 244 226
312 299 285 280 242 223 248 219 223 259 261 256 258 266 237 229 219 209 219 199 181 187 173 169 211 212 216 251 328 300 294 325 331 335 340 322 327 333 328 318 303 305 286 296 286 307 292 216 15 18 177 157 160 260
315 276 322 320 241 239 260 222 234 249 279 250 258 250 269 249 234 208 210 207 203 211 232 228 237 229 214 227 260 269 252 275 343 344 330 326 322 330 343 342 348 350 360 354 334 325 301 285 19 4 28 133 162 182
280 270 300 284 257 254 258 226 239 259 246 260 258 242 266 266 226 215 202 200 226 226 220 231 218 201 209 229 218 208 220 247 297 334 305 316 327 338 341 1 11 3 355 351 2 352 336 328 313 295 274 160 130 134
259 284 262 242 252 243 245 215 237 226 220 241 268 285 250 243 224 178 233 224 227 223 215 208 195 215 234 236 220 213 257 288 284 284 298 301 324 333 34 43 31 31 10 9 11 6 354 349 355 108 91 117 124 142
280 268 239 237 221 262 239 221 226 229 227 212 204 263 243 241 189 224 251 241 219 209 197 198 198 213 236 235 216 212 266 310 323 222 292 318 326 309 9 8 354 353 359 358 359 8 35 49 49 139 106 111 106 133
272 226 223 249 226 241 238 214 218 204 245 201 218 260 250 201 219 243 242 264 237 200 190 197 202 227 247 225 204 224 317 43 102 33 82 354 313 290 324 357 355 5 7 18 59 78 50 77 111 115 114 107 123 174
203 216 195 223 228 190 223 212 205 211 191 221 228 224 191 158 252 251 235 274 227 199 198 205 216 188 179 178 176 133 117 119 104 94 67 19 340 336 343 344 29 54 28 91 106 92 87 103 96 105 101 82 80 121
254 261 230 235 255 276 272 257 213 187 211 212 223 184 162 220 235 250 254 225 191 196 202 186 175 171 172 170 165 149 126 127 127 111 66 48 71 47 6 31 91 64 65 125 119 125 99 107 108 105 104 95 118 134
241 258 203 236 230 234 238 199 214 223 224 197 164 185 211 213 238 195 188 163 161 168 157 148 148 152 152 149 170 175 166 167 170 147 105 87 118 107 79 112 117 109 99 127 112 100 94 96 95 89 84 91 87 92
236 231 229 256 247 240 225 209 229 228 204 186 182 214 246 241 271 260 184 168 162 155 152 166 170 162 168 171 174 193 206 202 191 189 197 142 143 149 118 94 98 161 141 146 132 109 125 77 68 74 90 5 355 350
242 216 218 243 223 234 245 217 256 281 246 210 216 247 279 285 288 244 190 181 178 171 154 173 175 188 196 198 190 208 230 241 248 240 242 219 172 167 155 143 92 87 162 182 228 91 85 50 51 48 321 335 333 292
241 191 213 233 245 250 256 269 270 287 256 236 237 271 277 289 237 211 208 211 204 193 191 200 211 217 220 222 223 238 251 249 241 237 234 189 179 172 165 173 170 127 110 134 165 171 314 309 295 287 302 307 314 312
207 206 206 220 244 220 205 217 261 259 271 247 247 241 245 246 240 228 229 223 219 216 227 233 231 236 234 232 242 256 261 265 259 224 236 214 207 183 171 179 193 200 201 198 222 254 277 280 288 306 314 333 332 352
211 221 220 248 219 197 191 187 199 259 238 233 223 231 225 221 238 216 221 230 227 238 242 246 253 254 256 260 252 252 257 270 244 202 187 180 185 182 189 193 190 194 211 227 238 260 280 295 289 299 302 337 330 334